sat.trackr.live / text

‹ back to catalog

STARLINK-35193

NORAD 65889 · 2025-224H

PAYLOAD ACTIVE UNKNOWN

§ Identity

Operator
Country
US
Launch date
2025-10-07
Launch site
AFETR
Launch vehicle
Mass (kg)
RCS (m²)

Purposes: comms

External: N2YO · Heavens-Above · Gunter

§ Orbital elements

Epoch: 2026-05-25T01:30:45.684864Z

Period
94.10 min
Inclination
53.1584°
Eccentricity
0.0001125
Mean motion
15.30212991 rev/d
Perigee alt
474.4 km
Apogee alt
475.9 km
Semi-major
6,853.3 km
B*
1.0225e-3
RAAN
16.8672°
Arg perigee
96.1452°
Mean anomaly
263.9677°
Rev number
3,654

§ Raw data

STARLINK-351931 65889U 25224H   26145.06302876  .00030058  00000+0  10225-2 0  99982 65889  53.1584  16.8672 0001125  96.1452 263.9677 15.30212991 36541

JSON: /api/v1/satellites/65889 · /tle

For live sub-satellite position, see the globe view (requires WebGL).

§ Visibility from observer

Set your observer location to see the next 7 days of passes ≥ 10°. The values pass through the URL so the page stays shareable.

No JS? Fill the form by hand. The geolocation button needs JavaScript.